Regional Weather Roundup
Issued by NWS Goodland, KS

Home | Current Version | Previous Version | Text Only | Print | Product List | Glossary Off
Versions: 1 2 3 4 5 6 7 8 9 10 11 12 13 14 15 16 17 18 19 20 21 22 23 24 25 26 27 28 29 30 31 32 33 34 35 36 37 38 39 40 41 42 43 44 45 46 47 48 49 50

000
ASUS43 KGLD 061308
RWRGLD

GOODLAND FORECAST AREA HOURLY WEATHER ROUNDUP
NATIONAL WEATHER SERVICE GOODLAND KS
600 AM MST FRI MAR 06 2015

...OFFICIAL OBSERVATIONS...

CITY           SKY/WX    TMP DP  RH WIND       PRES   REMARKS
GOODLAND KS    CLEAR     27  19  72 W10       30.26R WCI  17
HILL CITY KS   CLEAR     23  17  78 W8        30.27S
IMPERIAL NEB     N/A     27  17  66 W12       30.23S WCI  17
MCCOOK NEB     CLEAR     24  17  74 W13       30.25S WCI  12
AKRON CO       CLEAR     25  17  72 W13       30.24R WCI  14
BURLINGTON CO  CLEAR     25  17  72 W7        30.26R
LIMON CO       PTCLDY     7   1  76 N7        30.27R
$$

...UNOFFICIAL OBSERVATIONS...

CITY           SKY/WX    TMP DP  RH WIND       PRES   REMARKS
COLBY KS       CLEAR     25  21  86 SW7       30.26S
GOVE KS          N/A     23  32 100 MISG        N/A
NORTON KS      CLEAR     18  12  79 SW9       30.24R
SHARON SPRINGS   N/A     27  22  81 CALM        N/A
YUMA CO          N/A     21  16  81 N5          N/A
$$


USA.gov is the U.S. government's official web portal to all federal, state and local government web resources and services.